Weather History for Penn Yan, NY

Change the Weather History Date:

Sunday, March 2, 2014

  Actual Average (KITH) Record (KITH)
Temperature  
Mean Temperature 18 °F -  
Max Temperature 25 °F 37 °F 62 °F (1972)
Min Temperature 10 °F 21 °F -13 °F (1980)
Degree Days  
Heating Degree Days 48    
Moisture  
Dew Point 10 °F    
Average Humidity 72    
Maximum Humidity 82    
Minimum Humidity 56    
Precipitation  
Precipitation 0.01 in - - ()
Sea Level Pressure  
Sea Level Pressure 30.16 in    
Wind  
Wind Speed 9 mph (NW)    
Max Wind Speed 13 mph    
Max Gust Speed 21 mph    
Visibility 6 miles    
Events Snow    
Averages and records for this station are not official NWS values.
T = Trace of Precipitation, MM = Missing Value Source: NWS Daily Summary

Daily Weather History Graph

Daily Weather History Graph

Search for Another Location

Airport:

Trip Planner

Search our weather history database for the weather conditions in past years. The results will help you decide how hot, cold, wet, or windy it might be!

Date:

Astronomy

Mar. 02, 2014 Rise Set
Actual Time 6:42 AM EST 5:59 PM EST
Civil Twilight 6:13 AM EST 6:27 PM EST
Nautical Twilight 5:41 AM EST 7:00 PM EST
Astronomical Twilight 5:08 AM EST 7:32 PM EST
Moon 7:09 AM EST (3/2) 7:56 PM EST (3/2)
Length of Visible Light 12h 13m
Length of Day
11h 16m
Waxing Crescent, 3% of the Moon is Illuminated
Mar 2
Waxing Crescent
Mar 8
First Quarter
Mar 16
Full
Mar 23
Last Quarter
Mar 30
New

Hourly Weather History & Observations

Time (EST) Temp. Windchill Dew Point Humidity Pressure Visibility Wind Dir Wind Speed Gust Speed Precip Events Conditions
12:22 AM 25.0 °F 15.5 °F 19.9 °F 81% 30.10 in 8.0 mi North 9.2 mph 19.6 mph N/A   Overcast
12:31 AM 25.0 °F 14.2 °F 19.0 °F 78% 30.11 in 10.0 mi NNW 11.5 mph 18.4 mph N/A   Overcast
12:39 AM 24.1 °F 12.5 °F 18.0 °F 77% 30.11 in 6.0 mi NNW 12.7 mph 20.7 mph 0.00 in Snow Light Snow
12:48 AM 23.0 °F 13.9 °F 17.6 °F 80% 30.11 in 2.5 mi NNW 8.1 mph 19.6 mph 0.00 in Snow Light Snow
12:53 AM 23.0 °F 13.1 °F 18.0 °F 81% 30.16 in 1.8 mi NNW 9.2 mph - 0.00 in Snow Light Snow
1:02 AM 23.0 °F 11.7 °F 18.0 °F 81% 30.12 in 1.8 mi NNW 11.5 mph 18.4 mph 0.00 in Snow Light Snow
1:12 AM 21.9 °F 11.7 °F 17.1 °F 82% 30.11 in 2.0 mi NNW 9.2 mph - 0.00 in Snow Light Snow
1:19 AM 21.9 °F 11.0 °F 17.1 °F 82% 30.11 in 2.5 mi NNW 10.4 mph - 0.00 in Snow Light Snow
1:27 AM 21.9 °F 13.4 °F 17.1 °F 82% 30.12 in 3.0 mi Variable 6.9 mph - 0.00 in Snow Light Snow
1:33 AM 21.9 °F 10.4 °F 17.1 °F 82% 30.12 in 2.0 mi NNW 11.5 mph 20.7 mph 0.00 in Snow Light Snow
1:53 AM 21.0 °F 14.6 °F 16.0 °F 81% 30.18 in 1.8 mi Variable 4.6 mph - 0.00 in Snow Light Snow
2:35 AM 19.9 °F 10.1 °F 14.0 °F 78% 30.13 in 2.5 mi NNW 8.1 mph - 0.01 in Snow Light Snow
2:53 AM 19.0 °F 9.0 °F 14.0 °F 81% 30.17 in 2.5 mi NNW 8.1 mph - 0.01 in Snow Light Snow
3:04 AM 18.0 °F 6.1 °F 12.0 °F 78% 30.13 in 3.0 mi NW 10.4 mph 16.1 mph 0.00 in Snow Light Snow
3:18 AM 18.0 °F 7.7 °F 12.0 °F 78% 30.13 in 3.0 mi NW 8.1 mph - 0.00 in Snow Light Snow
3:53 AM 18.0 °F 7.7 °F 10.9 °F 74% 30.18 in 6.0 mi NW 8.1 mph - 0.00 in Snow Light Snow
4:53 AM 17.1 °F 5.0 °F 10.0 °F 74% 30.19 in 10.0 mi NW 10.4 mph - 0.00 in   Overcast
5:53 AM 16.0 °F 6.3 °F 10.0 °F 77% 30.20 in 3.0 mi NW 6.9 mph - 0.00 in Snow Light Snow
6:53 AM 15.1 °F 5.2 °F 10.0 °F 80% 30.22 in 3.0 mi NW 6.9 mph - 0.00 in Snow Light Snow
7:03 AM 15.1 °F 5.2 °F 10.0 °F 80% 30.17 in 2.0 mi WNW 6.9 mph - 0.00 in Snow Light Snow
7:11 AM 15.1 °F 4.2 °F 9.0 °F 77% 30.17 in 1.5 mi NW 8.1 mph - 0.00 in Snow Light Snow
7:21 AM 15.1 °F 4.2 °F 10.0 °F 80% 30.18 in 1.2 mi NW 8.1 mph - 0.00 in Snow Light Snow
7:37 AM 15.1 °F 3.3 °F 9.0 °F 77% 30.17 in 2.0 mi NNW 9.2 mph - 0.00 in Snow Light Snow
7:46 AM 15.1 °F 7.7 °F 9.0 °F 77% 30.18 in 2.5 mi Variable 4.6 mph - 0.00 in Snow Light Snow
7:53 AM 15.1 °F 4.2 °F 9.0 °F 77% 30.23 in 3.0 mi NNW 8.1 mph - 0.00 in Snow Light Snow
8:39 AM 15.1 °F 5.2 °F 9.0 °F 77% 30.19 in 2.0 mi NW 6.9 mph - 0.00 in Snow Light Snow
8:53 AM 16.0 °F 7.4 °F 9.0 °F 74% 30.23 in 3.0 mi NNW 5.8 mph - 0.00 in Snow Light Snow
9:07 AM 15.1 °F 4.2 °F 9.0 °F 77% 30.18 in 2.0 mi NW 8.1 mph - 0.00 in Snow Light Snow
9:15 AM 16.0 °F 6.3 °F 10.0 °F 77% 30.18 in 1.2 mi NW 6.9 mph - 0.00 in Snow Light Snow
9:53 AM 15.1 °F 4.2 °F 10.0 °F 80% 30.23 in 1.0 mi NW 8.1 mph - 0.00 in Snow Light Snow
10:34 AM 16.0 °F 6.3 °F 8.1 °F 71% 30.17 in 2.5 mi NW 6.9 mph - 0.00 in Snow Light Snow
10:39 AM 16.0 °F 5.3 °F 8.1 °F 71% 30.17 in 7.0 mi NW 8.1 mph - 0.00 in Snow Light Snow
10:53 AM 16.0 °F 6.3 °F 9.0 °F 74% 30.21 in 10.0 mi NW 6.9 mph - 0.00 in   Overcast
11:53 AM 17.1 °F 7.6 °F 8.1 °F 68% 30.19 in 10.0 mi NW 6.9 mph - N/A   Scattered Clouds
12:44 PM 19.0 °F 8.2 °F 8.1 °F 62% 30.12 in 10.0 mi NW 9.2 mph - 0.00 in   Mostly Cloudy
12:53 PM 19.0 °F 7.5 °F 8.1 °F 62% 30.17 in 10.0 mi NW 10.4 mph - 0.00 in   Overcast
1:53 PM 19.9 °F 8.6 °F 8.1 °F 60% 30.16 in 10.0 mi NNW 10.4 mph - N/A   Overcast
2:53 PM 19.0 °F 6.8 °F 8.1 °F 62% 30.16 in 10.0 mi NW 11.5 mph - N/A   Overcast
3:21 PM 19.0 °F 7.5 °F 8.1 °F 62% 30.10 in 10.0 mi NNW 10.4 mph - N/A   Overcast
3:28 PM 19.0 °F 6.1 °F 8.1 °F 62% 30.10 in 10.0 mi NNW 12.7 mph - N/A   Overcast
3:53 PM 19.0 °F 6.8 °F 8.1 °F 62% 30.15 in 10.0 mi NW 11.5 mph - N/A   Overcast
4:16 PM 18.0 °F 6.1 °F 7.0 °F 62% 30.10 in 10.0 mi NW 10.4 mph - N/A   Overcast
4:50 PM 17.6 °F 5.7 °F 8.6 °F 68% 30.11 in 10.0 mi NW 10.4 mph - N/A   Overcast
4:53 PM 18.0 °F 6.9 °F 8.1 °F 65% 30.16 in 10.0 mi NW 9.2 mph - N/A   Overcast
5:53 PM 16.0 °F 4.4 °F 6.1 °F 65% 30.16 in 10.0 mi NW 9.2 mph - N/A   Overcast
6:53 PM 14.0 °F 2.0 °F 6.1 °F 71% 30.18 in 10.0 mi NW 9.2 mph - N/A   Mostly Cloudy
7:53 PM 12.9 °F 0.7 °F 3.0 °F 65% 30.18 in 10.0 mi WNW 9.2 mph - N/A   Clear
8:39 PM 12.0 °F 2.7 °F 1.9 °F 64% 30.13 in 10.0 mi Variable 5.8 mph - N/A   Mostly Cloudy
8:53 PM 12.0 °F 0.5 °F 1.0 °F 61% 30.19 in 10.0 mi NW 8.1 mph - N/A   Mostly Cloudy
9:05 PM 12.0 °F 1.5 °F 1.0 °F 61% 30.13 in 10.0 mi Variable 6.9 mph - N/A   Scattered Clouds
9:53 PM 10.9 °F -0.8 °F -0.0 °F 61% 30.21 in 10.0 mi WNW 8.1 mph - N/A   Clear
10:53 PM 10.9 °F 1.4 °F -2.0 °F 56% 30.21 in 10.0 mi West 5.8 mph - N/A   Partly Cloudy
11:53 PM 10.0 °F 0.4 °F -2.0 °F 58% 30.21 in 10.0 mi WNW 5.8 mph - N/A   Overcast